When you browse on this site, cookies collect data to enhance your experience and personalize the content and advertising you see.
Visit our Privacy Policy to learn more. By continuing to use the site, you agree to this use of cookies and data.
  • In Portugal
  • List of Countries
  • For 7 days
  • Water Temperature
  • Satellite Maps
  • Weather Map
  • Weather Widgets
  • user-avatar
    Login

    Hourly Weather Sazonovka

    Today, 26 April, Friday

    Time Temperature Precipitation Wind Pressure Humidity
    00:00 +13°C° 0 mm 2 mps 749 mmHg 59%
    01:00 +13°C° 0 mm 2 mps 749 mmHg 61%
    02:00 +11°C° 0 mm 1 mps 749 mmHg 63%
    03:00 +11°C° 0 mm 1 mps 749 mmHg 64%
    04:00 +10°C° 0 mm 1 mps 749 mmHg 64%
    05:00 +10°C° 0 mm 1 mps 749 mmHg 65%
    06:00 +12°C° 0 mm 1 mps 749 mmHg 61%
    07:00 +14°C° 0 mm 2 mps 748 mmHg 57%
    08:00 +17°C° 0 mm 2 mps 748 mmHg 52%
    09:00 +18°C° 0 mm 2 mps 748 mmHg 48%
    10:00 +19°C° 0 mm 3 mps 748 mmHg 44%
    11:00 +21°C° 0 mm 4 mps 748 mmHg 40%
    12:00 +21°C° 0 mm 4 mps 747 mmHg 39%
    13:00 +21°C° 0 mm 4 mps 747 mmHg 38%
    14:00 +22°C° 0 mm 4 mps 747 mmHg 37%
    15:00 +21°C° 0 mm 4 mps 747 mmHg 40%
    16:00 +21°C° 0 mm 3 mps 746 mmHg 42%
    17:00 +21°C° 0 mm 3 mps 746 mmHg 44%
    18:00 +19°C° 0 mm 2 mps 746 mmHg 49%
    19:00 +17°C° 0 mm 2 mps 745 mmHg 53%
    20:00 +15°C° 0 mm 2 mps 745 mmHg 57%
    21:00 +14°C° 0 mm 2 mps 745 mmHg 58%
    22:00 +14°C° 0 mm 2 mps 745 mmHg 58%
    23:00 +13°C° 0 mm 2 mps 745 mmHg 59%

    Tomorrow, 27 April, Saturday

    Time Temperature Precipitation Wind Pressure Humidity
    00:00 +12°C° 0 mm 2 mps 745 mmHg 60%
    01:00 +12°C° 0 mm 2 mps 744 mmHg 61%
    02:00 +10°C° 0 mm 2 mps 744 mmHg 61%
    03:00 +10°C° 0 mm 2 mps 744 mmHg 63%
    04:00 +10°C° 0 mm 2 mps 743 mmHg 65%
    05:00 +9°C° 0 mm 2 mps 743 mmHg 67%
    06:00 +12°C° 0 mm 2 mps 743 mmHg 65%
    07:00 +14°C° 0 mm 2 mps 743 mmHg 63%
    08:00 +16°C° 0 mm 2 mps 743 mmHg 61%
    09:00 +17°C° 0 mm 3 mps 742 mmHg 59%
    10:00 +19°C° 0 mm 3 mps 742 mmHg 56%
    11:00 +21°C° 0 mm 3 mps 742 mmHg 53%
    12:00 +21°C° 0.1 mm 3 mps 741 mmHg 53%
    13:00 +22°C° 0.1 mm 3 mps 741 mmHg 53%
    14:00 +23°C° 0.1 mm 2 mps 740 mmHg 53%
    15:00 +23°C° 0.7 mm 2 mps 740 mmHg 55%
    16:00 +21°C° 0.7 mm 2 mps 740 mmHg 57%
    17:00 +22°C° 0.7 mm 1 mps 739 mmHg 59%
    18:00 +20°C° 0.1 mm 1 mps 739 mmHg 66%
    19:00 +19°C° 0.1 mm 1 mps 739 mmHg 73%
    20:00 +16°C° 0.1 mm 1 mps 739 mmHg 80%
    21:00 +15°C° 0.2 mm 1 mps 739 mmHg 83%
    22:00 +15°C° 0.2 mm 1 mps 739 mmHg 85%
    23:00 +14°C° 0.2 mm 1 mps 739 mmHg 88%

    Day after tomorrow, 28 April, Sunday

    Time Temperature Precipitation Wind Pressure Humidity
    00:00 +13°C° 0 mm 0 mps 739 mmHg 88%
    01:00 +12°C° 0 mm 0 mps 739 mmHg 89%
    02:00 +12°C° 0 mm 0 mps 739 mmHg 89%
    03:00 +12°C° 0 mm 1 mps 739 mmHg 88%
    04:00 +12°C° 0 mm 2 mps 739 mmHg 88%
    05:00 +12°C° 0 mm 2 mps 739 mmHg 87%
    06:00 +12°C° 0 mm 3 mps 740 mmHg 82%
    07:00 +13°C° 0 mm 4 mps 740 mmHg 77%
    08:00 +14°C° 0 mm 5 mps 741 mmHg 72%
    09:00 +15°C° 0 mm 6 mps 741 mmHg 70%
    10:00 +15°C° 0 mm 6 mps 742 mmHg 68%
    11:00 +16°C° 0 mm 6 mps 742 mmHg 66%
    12:00 +16°C° 0 mm 6 mps 742 mmHg 63%
    13:00 +16°C° 0 mm 6 mps 743 mmHg 60%
    14:00 +16°C° 0 mm 6 mps 743 mmHg 58%
    15:00 +15°C° 0 mm 6 mps 743 mmHg 56%
    16:00 +15°C° 0 mm 6 mps 744 mmHg 54%
    17:00 +14°C° 0 mm 6 mps 744 mmHg 52%
    18:00 +11°C° 0 mm 6 mps 745 mmHg 51%
    19:00 +10°C° 0 mm 6 mps 745 mmHg 50%
    20:00 +8°C° 0 mm 5 mps 746 mmHg 50%
    21:00 +7°C° 0 mm 5 mps 746 mmHg 50%
    22:00 +6°C° 0 mm 5 mps 747 mmHg 51%
    23:00 +5°C° 0 mm 5 mps 747 mmHg 51%

    29 April, Monday

    Time Temperature Precipitation Wind Pressure Humidity
    00:00 +5°C° 0 mm 5 mps 748 mmHg 54%
    01:00 +4°C° 0 mm 4 mps 748 mmHg 56%
    02:00 +3°C° 0 mm 4 mps 748 mmHg 59%
    03:00 +3°C° 0 mm 4 mps 748 mmHg 61%
    04:00 +1°C° 0 mm 4 mps 748 mmHg 63%
    05:00 +1°C° 0 mm 4 mps 749 mmHg 65%
    06:00 +2°C° 0 mm 5 mps 749 mmHg 61%
    07:00 +3°C° 0 mm 5 mps 749 mmHg 58%
    08:00 +6°C° 0 mm 5 mps 749 mmHg 54%
    09:00 +7°C° 0 mm 5 mps 749 mmHg 50%
    10:00 +8°C° 0 mm 6 mps 749 mmHg 47%
    11:00 +9°C° 0 mm 6 mps 749 mmHg 43%
    12:00 +10°C° 0 mm 5 mps 749 mmHg 42%
    13:00 +10°C° 0 mm 5 mps 749 mmHg 40%
    14:00 +12°C° 0 mm 5 mps 748 mmHg 38%
    15:00 +12°C° 0 mm 5 mps 748 mmHg 39%
    16:00 +12°C° 0 mm 4 mps 748 mmHg 40%
    17:00 +11°C° 0 mm 4 mps 748 mmHg 40%
    18:00 +10°C° 0 mm 3 mps 748 mmHg 45%
    19:00 +8°C° 0 mm 3 mps 748 mmHg 50%
    20:00 +6°C° 0 mm 2 mps 748 mmHg 55%
    21:00 +6°C° 0 mm 2 mps 748 mmHg 57%
    22:00 +5°C° 0 mm 2 mps 748 mmHg 58%
    23:00 +4°C° 0 mm 2 mps 748 mmHg 60%

    30 April, Tuesday

    Time Temperature Precipitation Wind Pressure Humidity
    00:00 +4°C° 0 mm 2 mps 748 mmHg 61%
    01:00 +4°C° 0 mm 2 mps 748 mmHg 63%
    02:00 +3°C° 0 mm 2 mps 748 mmHg 65%
    03:00 +3°C° 0 mm 2 mps 747 mmHg 66%
    04:00 +3°C° 0 mm 2 mps 747 mmHg 67%
    05:00 +2°C° 0 mm 2 mps 747 mmHg 68%
    06:00 +4°C° 0 mm 2 mps 747 mmHg 62%
    07:00 +5°C° 0 mm 3 mps 747 mmHg 56%
    08:00 +8°C° 0 mm 3 mps 747 mmHg 50%
    09:00 +9°C° 0 mm 3 mps 746 mmHg 47%
    10:00 +10°C° 0 mm 3 mps 746 mmHg 43%
    11:00 +11°C° 0 mm 4 mps 746 mmHg 39%
    12:00 +12°C° 0 mm 3 mps 745 mmHg 38%
    13:00 +12°C° 0 mm 3 mps 745 mmHg 37%
    14:00 +13°C° 0 mm 3 mps 745 mmHg 36%
    15:00 +14°C° 0 mm 2 mps 744 mmHg 37%
    16:00 +14°C° 0 mm 2 mps 744 mmHg 38%
    17:00 +13°C° 0 mm 2 mps 743 mmHg 39%
    18:00 +12°C° 0 mm 2 mps 743 mmHg 42%
    19:00 +11°C° 0 mm 1 mps 743 mmHg 46%
    20:00 +9°C° 0 mm 1 mps 743 mmHg 50%
    21:00 +9°C° 0 mm 1 mps 743 mmHg 50%
    22:00 +8°C° 0 mm 0 mps 743 mmHg 50%
    23:00 +8°C° 0 mm 0 mps 743 mmHg 50%

    1 May, Wednesday

    Time Temperature Precipitation Wind Pressure Humidity
    00:00 +7°C° 0 mm 0 mps 743 mmHg 52%
    01:00 +8°C° 0 mm 1 mps 743 mmHg 54%
    02:00 +7°C° 0 mm 1 mps 743 mmHg 56%
    03:00 +7°C° 0 mm 1 mps 742 mmHg 59%
    04:00 +6°C° 0 mm 1 mps 742 mmHg 61%
    05:00 +6°C° 0 mm 1 mps 742 mmHg 64%
    06:00 +8°C° 0 mm 1 mps 742 mmHg 60%
    07:00 +8°C° 0 mm 2 mps 742 mmHg 56%
    08:00 +10°C° 0 mm 2 mps 742 mmHg 52%
    09:00 +12°C° 0 mm 2 mps 742 mmHg 48%
    10:00 +13°C° 0 mm 2 mps 742 mmHg 43%
    11:00 +13°C° 0 mm 3 mps 741 mmHg 38%
    12:00 +14°C° 0 mm 2 mps 741 mmHg 38%
    13:00 +14°C° 0 mm 2 mps 741 mmHg 38%
    14:00 +14°C° 0 mm 2 mps 741 mmHg 39%
    15:00 +14°C° 0 mm 2 mps 740 mmHg 40%
    16:00 +13°C° 0 mm 2 mps 740 mmHg 41%
    17:00 +13°C° 0 mm 1 mps 740 mmHg 42%
    18:00 +12°C° 0 mm 1 mps 740 mmHg 46%
    19:00 +10°C° 0 mm 1 mps 739 mmHg 50%
    20:00 +8°C° 0 mm 0 mps 739 mmHg 55%
    21:00 +7°C° 0 mm 0 mps 739 mmHg 56%
    22:00 +7°C° 0 mm 1 mps 739 mmHg 57%
    23:00 +7°C° 0 mm 1 mps 738 mmHg 58%
    Show more